EW4238 Weather Reports


time (UTC)temp
C
wind
direction
speed
KPH
gust
KPH
rain 1hr
cm
rain 24hr
cm
rain mn
cm
humidity
%
barometer
mb
20260503033008 11 149 3.2 6.4 0.00 0.00 0.00 63 1013.2
20260503031504 12 151 1.6 9.7 0.00 0.00 0.00 55 1013.0
20260503024600 16 185 6.4 17.7 0.00 0.00 0.00 42 1012.9
20260503023056 16 336 1.6 11.3 0.00 0.00 0.00 40 1012.8
20260503021553 17 13 0.0 0.0 0.00 0.00 0.00 37 1012.5
20260503014606 18 10 0.0 0.0 0.00 0.00 0.00 35 1012.2
20260503013049 18 349 0.0 1.6 0.00 0.00 0.00 35 1012.3
20260503011553 19 279 0.0 3.2 0.00 0.00 0.00 31 1012.3
20260503004547 19 143 0.0 4.8 0.00 0.00 0.00 34 1012.5
20260503003047 19 32 0.0 3.2 0.00 0.00 0.00 34 1012.6
20260503001555 18 345 0.0 4.8 0.00 0.00 0.00 35 1012.8
20260502234544 19 282 1.6 12.9 0.00 0.00 0.00 31 1013.0
20260502233045 20 2 3.2 9.7 0.00 0.00 0.00 32 1013.0
20260502231541 20 10 0.0 6.4 0.00 0.00 0.00 33 1013.1
20260502224539 20 322 8.0 19.3 0.00 0.00 0.00 30 1013.4
20260502223037 19 348 1.6 6.4 0.00 0.00 0.00 34 1013.6
20260502221540 20 210 1.6 6.4 0.00 0.00 0.00 32 1013.8
20260502214533 21 4 1.6 8.0 0.00 0.00 0.00 33 1014.2
20260502213030 20 41 4.8 11.3 0.00 0.00 0.00 35 1014.4
20260502211529 20 195 1.6 17.7 0.00 0.00 0.00 31 1014.5
20260502204528 21 338 4.8 12.9 0.00 0.00 0.00 32 1014.9
20260502203024 22 5 1.6 11.3 0.00 0.00 0.00 31 1015.0
20260502201523 23 353 6.4 17.7 0.00 0.00 0.00 29 1015.1
20260502194516 20 357 4.8 16.1 0.00 0.00 0.00 34 1015.4
20260502193012 18 7 0.0 8.0 0.00 0.00 0.00 40 1015.7
20260502191509 18 353 1.6 6.4 0.00 0.00 0.00 38 1016.1
20260502184510 17 12 0.0 6.4 0.00 0.00 0.00 39 1016.3
20260502183009 17 351 8.0 17.7 0.00 0.00 0.00 38 1016.3
20260502181503 18 353 3.2 12.9 0.00 0.00 0.00 36 1016.4
20260502163007 17 2 4.8 12.9 0.00 0.00 0.00 40 1016.7
20260502161501 16 40 6.4 19.3 0.00 0.00 0.00 41 1016.8
20260502151611 14 44 4.8 14.5 0.00 0.00 0.00 45 1016.8
20260502151501 14 333 1.6 4.8 0.00 0.00 0.00 44 1016.9
20260502150159 13 308 1.6 6.4 0.00 0.00 0.00 45 1016.7
20260502130151 8 345 1.6 4.8 0.00 0.00 0.00 55 1016.3
20260502123051 9 15 0.0 6.4 0.00 0.00 0.00 53 1016.2
20260502121553 9 18 0.0 4.8 0.00 0.00 0.00 52 1016.0
20260502120148 8 58 0.0 4.8 0.00 0.00 0.00 54 1015.9
20260502114551 8 50 0.0 4.8 0.00 0.00 0.00 55 1015.8
20260502113047 7 47 0.0 6.4 0.00 0.00 0.00 58 1015.8
20260502111549 7 2 0.0 4.8 0.00 0.00 0.00 54 1015.7
20260502110143 7 330 0.0 6.4 0.00 0.00 0.00 52 1015.6
20260502104539 8 324 3.2 4.8 0.00 0.00 0.00 52 1015.1
20260502103042 8 331 1.6 4.8 0.00 0.00 0.00 52 1014.8
20260502101544 7 45 0.0 4.8 0.00 0.00 0.00 53 1014.6
20260502100135 7 60 1.6 11.3 0.00 0.00 0.00 53 1014.4
20260502091532 9 353 0.0 3.2 0.00 0.00 0.00 46 1013.7
20260502090134 10 315 1.6 12.9 0.00 0.00 0.00 46 1013.6
20260502071517 8 337 4.8 11.3 0.00 0.00 0.00 45 1013.7
20260502070124 9 360 0.0 0.0 0.00 0.00 0.00 44 1013.6
20260502064515 9 359 0.0 1.6 0.00 0.00 0.00 43 1013.7
20260502063024 9 16 0.0 0.0 0.00 0.00 0.00 42 1013.5
20260502061512 10 16 0.0 0.0 0.00 0.00 0.00 41 1013.5
20260502060112 10 349 0.0 3.2 0.00 0.00 0.00 41 1013.4
20260502054510 10 328 0.0 4.8 0.00 0.00 0.00 41 1013.4
20260502053009 10 322 0.0 4.8 0.00 0.00 0.00 41 1013.4
20260502051508 10 14 0.0 3.2 0.00 0.00 0.00 40 1013.5
20260502050105 10 13 0.0 3.2 0.00 0.00 0.00 38 1013.4
20260502044503 10 337 0.0 0.0 0.00 0.00 0.00 36 1013.4
20260502043113 11 336 0.0 4.8 0.00 0.00 0.00 34 1013.4
20260502041633 12 293 0.0 3.2 0.00 0.00 0.00 32 1013.3
20260502040052 12 341 3.2 6.4 0.00 0.00 0.00 30 1013.2
20260502034550 13 322 1.6 6.4 0.00 0.00 0.00 28 1013.1